Lapse_Rate
7.4 7.4 7.4 7.1 7.2 7.3 7.2 7.0 6.9 6.9 6.8 6.8 6.7 6.7 6.8 6.8 6.9 6.9 6.9 6.9 6.9 6.9 6.8 6.7 6.6 6.4 6.4 6.3 6.3 6.3 6.2 6.2 6.2 6.2 6.2 6.2 6.2 6.2 6.2 6.2 6.2 6.2 6.3
7.4 7.4 7.3 7.3 7.4 7.3 7.2 7.0 6.9 6.9 6.8 6.9 6.8 6.6 6.7 6.9 6.9 6.9 7.0 7.0 7.0 6.8 6.8 6.6 6.5 6.4 6.3 6.3 6.4 6.3 6.3 6.2 6.2 6.2 6.2 6.2 6.2 6.2 6.2 6.1 6.2 6.2 6.2
7.5 7.5 7.4 7.4 7.4 7.2 7.1 7.1 7.1 7.0 6.9 6.9 6.8 6.6 6.7 6.9 7.0 7.0 6.9 6.9 6.9 6.8 6.7 6.5 6.5 6.4 6.3 6.3 6.3 6.3 6.3 6.2 6.2 6.2 6.2 6.2 6.2 6.2 6.2 6.2 6.2 6.1 6.2
7.5 7.4 7.3 7.2 7.1 7.0 7.1 7.0 6.9 6.8 6.8 6.7 6.8 6.7 6.7 6.8 6.8 6.8 6.9 6.8 6.8 6.7 6.6 6.5 6.4 6.3 6.3 6.2 6.1 6.2 6.2 6.2 6.2 6.2 6.2 6.2 6.2 6.2 6.2 6.2 6.2 6.2 6.2
7.5 7.4 7.2 7.0 7.1 7.0 6.8 6.7 6.6 6.6 6.6 6.6 6.6 6.6 6.7 6.6 6.6 6.8 6.8 6.8 6.7 6.6 6.5 6.4 6.3 6.3 6.2 6.1 6.1 6.1 6.1 6.1 6.1 6.2 6.1 6.1 6.1 6.2 6.2 6.1 6.2 6.2 6.2
7.3 7.3 7.1 7.1 7.1 6.8 6.7 6.5 6.5 6.5 6.4 6.4 6.4 6.4 6.5 6.5 6.5 6.6 6.6 6.6 6.6 6.6 6.5 6.4 6.4 6.3 6.2 6.2 6.1 6.1 6.0 5.9 6.0 6.0 6.0 6.0 6.0 6.1 6.1 6.1 6.1 6.2 6.2
7.1 7.0 7.1 7.2 7.0 6.6 6.6 6.6 6.5 6.5 6.3 6.2 6.2 6.3 6.4 6.4 6.4 6.3 6.4 6.4 6.4 6.4 6.3 6.3 6.2 6.1 6.1 6.1 6.1 6.1 6.0 5.9 5.9 5.9 5.9 5.9 6.0 6.1 6.1 6.1 6.1 6.1 6.1
6.8 6.7 6.8 6.9 6.9 6.7 6.6 6.5 6.6 6.4 6.2 6.0 6.1 6.3 6.2 6.3 6.3 6.2 6.3 6.3 6.3 6.3 6.2 6.2 6.2 6.1 6.1 6.0 6.0 6.0 5.9 5.9 5.8 5.8 5.9 5.9 5.9 6.0 6.1 6.1 6.1 6.1 6.2
6.8 6.5 6.5 6.7 6.7 6.6 6.6 6.5 6.4 6.3 6.1 6.1 6.1 6.1 6.2 6.2 6.2 6.2 6.2 6.2 6.2 6.2 6.2 6.1 6.0 6.0 6.0 6.0 5.9 5.9 5.8 5.8 5.8 5.8 5.7 5.7 5.7 5.7 5.8 5.8 5.9 6.0 6.0
6.7 6.5 6.5 6.5 6.6 6.6 6.5 6.3 6.4 6.3 6.1 6.0 6.0 6.0 6.1 6.2 6.2 6.2 6.2 6.2 6.1 6.1 6.0 5.9 5.9 5.9 5.9 5.9 6.0 6.0 6.0 5.9 5.8 5.7 5.7 5.7 5.7 5.8 5.9 5.9 6.0 6.0 6.1
6.6 6.5 6.4 6.5 6.7 6.7 6.4 6.1 6.2 6.1 6.1 6.0 6.0 6.1 6.0 6.1 6.1 6.1 6.2 6.2 6.1 6.0 6.0 5.9 5.7 5.7 5.8 5.8 5.8 5.9 5.9 5.9 5.9 5.8 5.8 5.8 5.8 5.8 5.8 5.9 5.9 6.0 6.0
6.5 6.5 6.4 6.5 6.5 6.5 6.4 6.1 6.0 6.0 6.0 6.0 5.9 5.9 6.0 5.9 6.0 6.1 6.2 6.2 6.1 6.1 6.0 5.8 5.8 5.8 5.8 5.8 5.7 5.7 5.8 5.9 6.0 6.2 6.3 6.2 6.0 6.0 6.1 6.2 6.2 6.3 6.3
6.2 6.4 6.4 6.4 6.4 6.4 6.4 6.3 6.0 5.8 5.8 6.0 5.9 5.8 5.8 5.9 5.9 6.0 5.9 5.9 6.0 6.3 6.4 6.4 6.3 6.2 6.0 5.9 5.8 5.8 5.8 5.9 6.1 6.2 6.3 6.2 6.2 6.3 6.3 6.3 6.3 6.3 6.2
6.1 6.2 6.2 6.4 6.2 6.3 6.5 6.2 6.1 6.2 5.8 6.0 5.9 5.5 5.8 5.9 5.8 5.8 5.7 5.7 5.7 6.0 6.2 6.4 6.5 6.4 6.4 6.2 5.9 5.8 5.8 5.9 5.9 6.0 6.0 6.0 6.1 6.2 6.1 6.1 5.9 5.8 5.4
6.2 6.2 6.2 6.2 6.2 6.4 6.5 6.1 6.1 6.1 5.2 5.6 5.6 5.7 5.6 5.7 5.6 5.7 5.7 5.7 5.7 5.8 6.0 6.6 6.5 6.6 6.3 6.2 6.1 6.0 6.0 6.1 6.0 5.8 5.8 5.9 5.9 5.8 5.6 5.3 5.0 4.6 4.2
6.0 6.1 6.2 6.3 6.5 6.5 6.4 6.1 6.0 5.7 5.4 5.8 5.7 5.3 5.5 5.4 5.4 5.5 5.6 5.6 5.7 5.8 5.9 6.1 6.1 6.2 6.1 6.1 6.0 5.9 6.0 6.0 6.0 6.1 5.9 5.7 5.4 5.0 4.6 4.3 4.0 3.8 3.4
5.9 6.0 6.1 6.3 6.4 6.5 6.1 6.2 6.2 5.8 5.7 5.7 5.6 5.3 5.4 5.4 5.5 5.7 5.6 5.9 5.9 5.9 6.0 6.1 6.0 5.8 5.7 5.7 5.7 5.7 5.7 5.8 5.8 5.6 5.2 4.9 4.6 4.3 3.9 3.6 3.4 3.2 3.1
6.0 6.2 6.3 6.4 6.3 6.1 6.0 6.0 5.7 5.6 5.5 5.8 5.0 5.3 5.5 5.6 5.8 5.8 5.9 5.9 6.1 6.0 6.2 6.1 5.9 5.8 5.7 5.6 5.6 5.6 5.5 5.4 5.3 4.8 4.6 4.2 3.8 3.5 3.1 3.1 3.1 3.1 3.5
6.0 6.2 6.4 6.5 6.1 6.0 5.9 5.5 5.6 5.7 5.6 5.4 5.1 5.1 5.4 5.6 5.7 5.7 5.8 5.9 6.0 6.0 5.8 5.9 5.8 5.7 5.7 5.5 5.5 5.3 5.3 5.1 4.7 4.3 3.9 3.4 3.3 3.2 3.2 3.2 3.9 4.9 5.0
6.2 6.2 6.4 6.1 5.9 6.1 5.7 5.6 5.6 5.7 5.5 5.3 5.2 5.4 5.4 5.5 5.8 5.7 5.7 5.9 5.8 5.7 5.7 5.8 5.8 5.7 5.6 5.3 5.1 5.0 5.0 4.5 4.2 3.7 3.2 3.0 3.2 3.1 3.9 4.6 5.2 5.3 5.4
6.1 5.9 6.0 5.7 5.9 5.9 6.0 5.7 5.9 5.4 5.0 5.0 5.2 5.3 5.5 5.4 5.6 5.7 5.6 5.6 5.6 5.8 5.8 5.6 5.5 5.4 5.1 4.9 4.5 4.4 4.3 4.0 3.8 3.2 3.1 3.4 3.8 4.7 5.0 5.0 5.3 5.6 5.5
5.9 6.0 5.8 6.0 5.9 5.7 6.0 5.6 4.9 5.0 5.4 5.4 5.3 5.3 5.4 5.4 5.4 5.4 5.4 5.4 5.5 5.5 5.4 5.1 5.0 4.8 4.6 4.2 4.0 3.9 3.6 3.3 3.6 3.7 3.9 5.2 5.4 5.5 5.7 5.8 6.0 5.8 5.4
6.1 6.1 5.9 6.0 5.5 5.6 5.1 4.7 4.9 5.1 5.2 5.0 5.6 5.3 5.1 5.2 5.3 5.4 5.4 5.4 5.3 5.1 4.8 4.5 4.4 4.2 4.0 3.6 3.2 3.1 3.1 3.2 3.9 5.2 5.3 5.9 5.4 5.7 5.7 5.9 5.9 5.6 5.2
5.6 5.8 5.6 5.4 5.1 5.0 4.8 4.9 5.0 5.0 5.1 5.3 5.3 5.4 5.2 5.3 5.3 5.4 5.4 5.2 5.1 5.0 4.5 4.2 4.0 3.6 3.3 3.1 3.0 3.1 3.7 4.5 5.3 5.0 4.9 5.4 5.0 5.4 5.4 5.7 5.9 5.5 5.6
5.1 5.3 5.1 5.0 5.0 4.9 4.7 4.5 5.0 4.9 5.4 5.3 5.3 5.1 5.1 5.4 5.3 5.0 5.2 5.3 4.9 4.3 3.9 3.8 3.4 3.2 3.0 2.9 3.1 4.1 4.7 4.8 5.1 5.1 5.4 4.7 4.9 5.1 5.3 5.8 5.9 6.0 6.0
5.1 5.1 4.6 4.8 4.7 4.9 5.0 5.0 5.1 5.3 5.3 5.1 5.2 5.2 5.1 5.1 5.2 5.0 4.8 4.5 4.3 3.9 3.7 3.5 3.4 3.2 3.2 3.9 4.4 4.5 4.4 4.4 4.4 4.8 5.2 4.7 5.1 5.0 5.6 6.5 6.8 6.9 6.6
Wind_Speed
5 9 8 10 10 11 8 6 7 6 6 6 6 7 6 8 8 9 10 12 11 9 9 8 8 8 8 7 8 8 8 9 9 9 9 10 11 11 12 12 12 11 11
10 8 6 7 8 11 10 11 7 5 4 4 4 5 5 7 8 8 9 11 11 10 8 8 7 6 6 7 7 8 9 9 9 10 10 10 11 11 11 12 11 11 12
12 11 6 4 9 12 13 11 8 7 4 4 4 3 4 6 9 9 8 9 10 10 8 6 5 5 5 7 7 8 8 9 10 10 10 10 11 11 12 12 12 12 12
17 12 6 6 14 12 10 5 4 4 3 3 2 1 1 4 7 9 9 9 10 9 7 5 4 4 4 7 8 9 9 8 10 9 9 10 11 11 12 13 13 13 13
18 13 7 8 15 8 4 4 2 3 2 1 1 1 1 1 5 7 8 9 9 8 6 5 4 4 5 7 8 8 10 8 9 8 9 10 11 12 14 15 15 16 16
17 14 8 9 12 5 4 3 3 2 2 2 2 2 1 1 2 4 6 7 8 8 6 5 4 2 3 5 6 9 10 10 8 8 9 10 11 13 15 16 17 18 18
18 15 8 8 8 7 6 6 4 4 2 1 3 3 2 2 0 1 2 4 5 7 5 4 3 1 3 2 2 7 11 10 9 11 11 11 13 14 16 19 20 20 21
18 13 11 9 8 6 6 6 5 3 2 1 3 2 1 3 2 2 1 1 2 2 3 3 2 4 5 4 5 8 10 9 10 12 14 13 15 17 20 21 21 22 22
18 16 13 10 10 7 7 6 6 6 4 1 1 3 2 4 1 2 2 1 1 2 2 3 6 6 6 6 8 10 9 9 11 13 15 16 17 20 23 23 24 24 25
13 16 15 12 11 7 8 6 5 3 4 4 1 2 3 3 3 1 1 1 1 2 1 3 4 9 9 10 9 9 11 14 15 17 17 19 21 23 25 26 27 28 25
7 11 14 11 12 8 8 8 6 6 3 3 3 2 1 2 2 2 2 2 2 2 2 0 6 6 10 12 13 11 11 12 15 19 21 23 25 27 29 29 29 29 27
4 6 9 8 10 9 10 7 5 6 5 4 3 3 3 3 2 2 2 2 3 3 2 3 2 4 6 12 11 14 16 18 19 21 25 27 30 31 30 29 29 28 27
6 9 9 9 7 9 8 7 7 6 5 5 4 3 2 2 2 2 2 1 2 2 2 2 2 2 4 11 10 18 19 20 22 23 26 29 28 28 28 28 28 30 31
9 10 8 7 8 9 7 6 4 3 5 5 7 5 3 2 2 2 3 3 2 2 2 4 1 2 6 13 16 19 18 22 21 26 29 27 29 29 29 28 29 31 29
8 10 11 10 10 10 9 8 6 5 5 4 5 6 3 2 2 3 2 3 4 2 2 2 2 3 11 13 14 17 17 17 28 28 28 28 27 27 28 29 31 29 27
12 13 12 12 10 11 9 7 4 4 4 4 3 5 3 2 2 2 2 2 3 4 3 3 3 3 7 10 14 18 18 25 24 25 26 26 27 29 28 29 27 29 30
13 13 12 12 10 10 8 7 4 5 2 4 4 5 5 5 3 2 2 2 3 3 4 3 3 3 3 6 10 15 17 17 17 23 27 27 28 28 27 28 30 30 31
11 12 12 12 11 9 8 6 9 5 4 5 3 3 3 2 3 4 3 5 4 4 3 8 3 3 5 6 6 8 13 18 18 23 27 27 28 28 29 29 30 29 30
11 11 12 12 12 10 6 4 5 4 4 3 2 1 1 2 4 3 4 4 4 4 4 4 6 3 4 3 6 7 7 10 16 23 26 28 28 29 29 28 29 30 30
13 13 12 12 11 9 7 6 6 5 4 3 3 4 3 4 5 4 4 6 5 4 4 4 5 4 3 4 5 6 9 7 9 15 23 26 27 25 27 29 30 30 30
13 14 13 12 9 7 5 6 6 5 3 1 3 2 4 5 7 8 4 5 5 4 4 4 4 2 4 6 9 8 9 10 10 9 11 7 6 9 16 24 27 28 29
14 14 12 10 8 6 9 9 4 3 3 1 2 4 4 7 8 12 13 14 12 3 3 3 3 6 8 8 8 9 9 10 9 6 3 10 11 10 10 16 25 29 31
13 11 10 8 6 6 8 8 7 2 3 2 2 3 4 3 6 5 10 14 14 16 15 10 9 8 10 9 11 11 11 9 9 11 10 12 9 12 9 18 28 31 34
9 8 7 6 4 5 9 6 6 4 3 3 2 2 3 5 6 7 6 6 6 6 6 6 7 9 10 11 10 9 10 10 9 10 9 11 9 12 10 13 28 33 32
6 7 5 6 5 4 7 4 5 2 1 3 3 4 5 5 11 15 7 6 6 6 11 20 23 24 24 25 22 9 7 8 11 10 9 9 6 9 10 12 14 26 26
6 5 5 4 6 3 6 5 4 2 1 3 4 4 9 10 15 16 8 5 5 6 9 8 5 9 16 14 21 8 6 8 9 8 2 2 8 7 6 4 6 5 8
Wind_Direction
185 177 184 179 184 171 172 156 142 131 107 94 84 99 95 121 123 117 109 108 110 105 98 89 77 67 58 46 41 32 24 23 14 7 4 6 2 359 356 351 347 343 334
185 176 178 184 181 180 175 151 146 133 108 102 76 90 104 125 135 132 126 119 119 113 104 91 71 50 39 31 29 23 23 18 10 2 357 359 357 355 350 345 339 335 328
179 173 177 169 172 175 152 133 118 108 92 74 68 78 115 130 155 152 141 127 122 118 119 103 75 61 43 23 23 17 15 16 7 0 360 359 357 350 346 340 338 331 325
178 170 169 173 168 165 149 132 125 94 94 89 91 46 121 137 152 164 154 146 143 142 141 127 81 53 50 23 8 4 6 5 359 358 358 353 352 348 343 338 333 327 320
169 165 166 165 161 154 146 139 106 127 127 98 140 111 112 146 157 159 170 169 169 167 168 161 113 93 44 9 355 358 351 340 345 346 346 341 343 340 336 331 327 321 316
166 161 154 157 158 148 139 127 126 71 121 138 89 61 27 14 149 164 182 180 187 181 176 166 158 111 19 358 2 347 340 328 327 329 324 323 325 330 329 326 321 315 310
170 165 161 155 160 160 154 141 121 122 66 88 96 22 358 11 251 219 194 182 183 183 178 176 164 321 312 298 322 336 335 321 313 314 313 310 309 317 319 318 313 308 305
170 168 162 164 162 137 144 157 149 132 118 150 136 107 135 324 336 10 329 193 158 144 116 120 332 305 289 276 286 313 322 313 307 308 309 304 302 312 314 311 307 304 301
172 172 170 166 161 153 165 171 165 154 147 205 147 141 116 216 20 347 15 81 72 93 92 44 360 358 347 300 296 300 292 295 300 305 305 302 302 307 308 307 304 302 299
179 167 164 170 163 159 161 169 164 153 134 153 71 42 60 132 165 288 332 273 74 138 76 340 355 336 352 348 332 318 301 295 296 302 303 302 300 304 305 302 302 298 299
191 174 167 169 166 162 163 162 157 160 149 141 147 153 81 51 84 126 234 299 328 267 276 239 321 13 14 20 16 3 345 320 310 306 304 302 302 302 301 300 297 297 295
166 171 166 172 172 156 157 161 149 159 153 129 134 138 151 163 188 152 190 251 240 295 308 321 338 50 59 25 1 347 334 320 310 306 303 301 300 300 299 297 297 297 296
172 176 170 162 176 143 141 146 146 147 145 138 141 144 116 136 132 120 124 233 264 298 310 292 274 21 35 358 341 328 320 315 306 304 304 301 301 300 299 296 297 295 293
168 162 156 153 151 139 138 137 128 122 131 138 141 126 124 143 140 145 158 149 309 293 304 251 294 148 355 347 325 318 315 310 304 303 303 302 302 299 295 294 295 291 292
149 146 151 151 157 138 142 147 147 142 151 134 140 137 135 160 129 136 141 150 162 269 273 278 269 257 329 315 307 314 307 307 304 302 301 300 298 297 296 296 289 290 294
147 153 158 154 150 137 136 127 112 104 147 127 142 133 128 133 140 149 164 168 177 195 240 214 253 265 293 297 299 313 299 305 302 300 299 298 298 295 294 288 293 291 286
152 156 154 146 139 122 117 117 101 147 172 122 134 154 172 163 169 183 197 178 213 189 240 272 242 262 276 277 293 290 294 294 291 294 299 298 297 293 292 297 291 292 291
149 145 133 122 109 97 96 119 171 143 172 152 149 146 178 187 198 182 198 232 230 229 223 268 245 253 243 267 270 282 290 290 287 289 294 294 295 295 293 291 291 287 286
128 129 119 110 106 107 107 110 95 133 137 111 153 183 261 217 237 219 224 239 238 249 236 256 280 246 259 267 285 273 271 276 278 286 293 294 293 293 294 292 292 293 294
118 108 105 106 105 113 134 141 114 103 80 71 32 8 274 239 238 241 238 242 248 251 253 259 271 262 246 280 275 289 298 291 292 288 285 286 290 292 291 295 294 292 290
103 102 100 91 93 87 93 84 78 77 69 359 256 288 294 271 251 250 239 242 239 242 253 255 270 257 276 288 297 300 291 294 290 280 279 282 276 269 275 285 284 285 286
95 93 92 97 88 110 128 103 155 154 185 163 347 324 312 305 299 292 290 291 286 251 230 217 232 276 279 294 295 291 288 293 302 259 271 292 294 285 278 275 278 284 283
99 101 100 112 128 111 128 170 165 124 81 35 13 328 324 331 335 305 295 292 294 295 294 296 294 280 287 287 286 287 281 275 282 294 293 292 291 285 280 276 281 283 283
101 110 111 100 128 185 177 153 116 80 66 22 332 317 301 298 302 297 276 271 271 266 275 271 252 270 267 271 267 268 293 293 286 286 287 287 289 282 283 277 281 284 284
115 97 126 168 166 150 168 137 110 131 73 328 311 294 292 299 306 312 302 278 272 270 282 293 294 297 299 300 301 304 291 296 294 292 290 286 277 286 284 280 272 272 277
121 136 138 125 140 178 197 200 174 152 247 280 304 300 322 323 314 307 305 296 302 291 285 291 292 294 290 281 292 287 277 277 284 295 265 267 299 305 299 235 267 265 268